EW8360 Weather Reports


Display with metric or nautical units.
time (UTC)temp
F
wind
direction
speed
MPH
gust
MPH
rain 1hr
in
rain 24hr
in
rain mn
in
humidity
%
barometer
mb
20260831024711 72 283 2.0 3.0 0.00 0.00 0.00 86 1009.9
20260831024212 73 263 2.0 5.0 0.00 0.00 0.00 85 1010.0
20260831023712 73 264 1.0 5.0 0.00 0.00 0.00 85 1010.0
20260831023211 73 264 0.0 5.0 0.00 0.00 0.00 84 1009.9
20260831022712 73 260 1.0 3.0 0.00 0.00 0.00 84 1009.8
20260831022211 74 262 1.0 3.0 0.00 0.00 0.00 83 1009.8
20260831021938 74 269 0.0 3.0 0.00 0.00 0.00 82 1009.8
20260831021212 74 285 0.0 5.0 0.00 0.00 0.00 81 1009.7
20260831020711 74 263 0.0 5.0 0.00 0.00 0.00 81 1009.7
20260831020211 75 304 3.0 5.0 0.00 0.00 0.00 80 1009.6
20260831015932 75 315 2.0 6.0 0.00 0.00 0.00 80 1009.5
20260831015439 75 280 0.0 6.0 0.00 0.00 0.00 80 1009.6
20260831014935 76 263 0.0 7.0 0.00 0.00 0.00 80 1009.6
20260831014208 76 276 2.0 7.0 0.00 0.00 0.00 80 1009.6
20260831013709 76 344 3.0 5.0 0.00 0.00 0.00 78 1009.6
20260831013211 76 260 2.0 6.0 0.00 0.00 0.00 77 1009.7
20260831012209 76 310 2.0 7.0 0.00 0.00 0.00 77 1009.6
20260831011930 77 311 4.0 7.0 0.00 0.00 0.00 77 1009.6
20260831011210 77 347 5.0 7.0 0.00 0.00 0.00 77 1009.6
20260831010711 77 257 3.0 7.0 0.00 0.00 0.00 76 1009.6
20260831010430 77 291 4.0 9.0 0.00 0.00 0.00 76 1009.6
20260831005709 77 265 3.0 9.0 0.00 0.00 0.00 76 1009.6
20260831005210 77 330 5.0 8.0 0.00 0.00 0.00 77 1009.6
20260831004711 77 294 2.0 8.0 0.00 0.00 0.00 77 1009.7
20260831004426 77 314 4.0 8.0 0.00 0.00 0.00 77 1009.5
20260831003708 78 308 3.0 8.0 0.00 0.00 0.00 77 1009.6
20260831003210 78 324 5.0 7.0 0.00 0.00 0.00 77 1009.7
20260831002710 78 249 3.0 8.0 0.00 0.00 0.00 75 1009.7
20260831002209 78 267 5.0 8.0 0.00 0.00 0.00 75 1009.8
20260831001709 78 264 4.0 8.0 0.00 0.00 0.00 74 1009.8
20260831001208 78 284 6.0 8.0 0.00 0.00 0.00 74 1009.6
20260831000710 78 281 2.0 8.0 0.00 0.00 0.00 74 1009.5
20260831000221 78 255 2.0 9.0 0.00 0.00 0.00 74 1009.5
20260830235944 78 350 7.0 10.0 0.00 0.00 0.00 74 1009.5
20260830235221 78 0 6.0 10.0 0.00 0.00 0.00 75 1009.5
20260830234726 78 268 5.0 12.0 0.00 0.00 0.00 75 1009.5
20260830234226 78 327 5.0 12.0 0.00 0.00 0.00 76 1009.6
20260830233712 78 312 3.0 12.0 0.00 0.00 0.00 74 1009.7
20260830233218 78 328 3.0 9.0 0.00 0.00 0.00 74 1009.9
20260830232726 78 300 7.0 10.0 0.00 0.00 0.00 75 1009.8
20260830232218 79 257 7.0 10.0 0.00 0.00 0.00 75 1009.6
20260830231933 79 249 2.0 10.0 0.00 0.00 0.00 73 1009.8
20260830231230 78 316 2.0 10.0 0.00 0.00 0.00 74 1009.8
20260830230951 79 319 2.0 13.0 0.00 0.00 0.00 74 1009.8
20260830230220 79 264 6.0 13.0 0.00 0.00 0.00 73 1009.8
20260830225732 79 300 8.0 10.0 0.00 0.00 0.00 73 1009.8
20260830225214 79 328 4.0 12.0 0.00 0.00 0.00 74 1009.9
20260830224726 80 276 3.0 12.0 0.00 0.00 0.00 73 1009.9
20260830224228 80 313 7.0 12.0 0.00 0.00 0.00 73 1009.9
20260830223729 81 352 8.0 10.0 0.00 0.00 0.00 72 1009.8
20260830223217 80 233 2.0 13.0 0.00 0.00 0.00 71 1009.9
20260830222723 81 356 8.0 13.0 0.00 0.00 0.00 73 1009.9
20260830222234 82 282 6.0 8.0 0.00 0.00 0.00 69 1009.9
20260830221730 81 354 5.0 9.0 0.00 0.00 0.00 67 1010.1
20260830221223 81 347 5.0 9.0 0.00 0.00 0.00 68 1010.0
20260830220742 82 270 5.0 9.0 0.00 0.00 0.00 66 1010.2
20260830220438 82 274 7.0 9.0 0.00 0.00 0.00 70 1010.3
20260830215723 82 231 2.0 8.0 0.00 0.00 0.00 64 1010.3
20260830215220 82 280 3.0 9.0 0.00 0.00 0.00 65 1010.2
20260830214717 82 320 6.0 9.0 0.00 0.00 0.00 68 1010.3
20260830214209 82 184 4.0 7.0 0.00 0.00 0.00 66 1010.4
20260830213722 82 274 3.0 6.0 0.00 0.00 0.00 64 1010.4
20260830213214 81 263 4.0 10.0 0.00 0.00 0.00 65 1010.4
20260830212737 81 258 1.0 10.0 0.00 0.00 0.00 63 1010.3
20260830212446 81 236 6.0 9.0 0.00 0.00 0.00 60 1010.4
20260830211715 81 264 3.0 9.0 0.00 0.00 0.00 64 1010.4
20260830211227 81 190 4.0 12.0 0.00 0.00 0.00 66 1010.4
20260830210722 81 220 5.0 12.0 0.00 0.00 0.00 65 1010.6
20260830210222 81 217 6.0 12.0 0.00 0.00 0.00 66 1010.7
20260830205739 81 185 4.0 12.0 0.00 0.00 0.00 66 1010.8
20260830205230 81 211 3.0 12.0 0.00 0.00 0.00 64 1010.9
20260830204732 81 206 1.0 10.0 0.00 0.00 0.00 64 1010.9
20260830204231 81 223 5.0 12.0 0.00 0.00 0.00 67 1011.0
20260830203719 81 207 4.0 12.0 0.00 0.00 0.00 67 1011.1
20260830203221 81 239 4.0 10.0 0.00 0.00 0.00 64 1011.0
20260830202719 81 253 1.0 10.0 0.00 0.00 0.00 69 1011.0
20260830202228 81 234 2.0 13.0 0.00 0.00 0.00 66 1010.9
20260830201955 81 212 5.0 14.0 0.00 0.00 0.00 64 1010.8
20260830201216 81 229 7.0 14.0 0.00 0.00 0.00 66 1010.8
20260830200924 81 169 4.0 10.0 0.00 0.00 0.00 64 1010.7
20260830200219 81 267 1.0 10.0 0.00 0.00 0.00 65 1010.9
20260830195705 81 176 2.0 10.0 0.00 0.00 0.00 64 1010.9
20260830195204 81 236 3.0 10.0 0.00 0.00 0.00 67 1011.0
20260830194721 81 214 3.0 10.0 0.00 0.00 0.00 63 1011.0
20260830194216 81 223 4.0 10.0 0.00 0.00 0.00 63 1011.0
20260830193723 81 242 5.0 13.0 0.00 0.00 0.00 66 1011.1
20260830193210 81 217 5.0 13.0 0.00 0.00 0.00 66 1011.1
20260830192712 81 190 4.0 10.0 0.00 0.00 0.00 67 1011.1
20260830192216 80 135 5.0 8.0 0.00 0.00 0.00 64 1011.1
20260830191722 80 236 5.0 8.0 0.00 0.00 0.00 63 1011.2
20260830191217 80 241 2.0 10.0 0.00 0.00 0.00 65 1011.3
20260830190713 80 250 7.0 12.0 0.00 0.00 0.00 67 1011.2
20260830190435 80 228 4.0 12.0 0.00 0.00 0.00 69 1011.2
20260830185724 80 187 3.0 9.0 0.00 0.00 0.00 65 1011.3
20260830185214 80 252 5.0 9.0 0.00 0.00 0.00 68 1011.3
20260830184717 79 216 1.0 9.0 0.00 0.00 0.00 63 1011.3
20260830184227 79 253 3.0 9.0 0.00 0.00 0.00 66 1011.4
20260830183714 79 225 3.0 9.0 0.00 0.00 0.00 65 1011.4
20260830183218 79 200 6.0 10.0 0.00 0.00 0.00 67 1011.5
20260830182712 78 210 6.0 10.0 0.00 0.00 0.00 65 1011.4
20260830182233 78 225 4.0 10.0 0.00 0.00 0.00 69 1011.5
20260830181727 78 210 5.0 10.0 0.00 0.00 0.00 66 1011.5
20260830181216 78 194 7.0 10.0 0.00 0.00 0.00 66 1011.5
20260830180722 78 232 6.0 10.0 0.00 0.00 0.00 72 1011.4
20260830180218 78 226 5.0 10.0 0.00 0.00 0.00 74 1011.4
20260830175715 78 228 3.0 10.0 0.00 0.00 0.00 75 1011.4
20260830174731 78 216 7.0 9.0 0.00 0.00 0.00 75 1011.4
20260830174209 78 240 2.0 7.0 0.00 0.00 0.00 75 1011.4
20260830173712 78 142 5.0 7.0 0.00 0.00 0.00 76 1011.4
20260830173215 78 222 3.0 9.0 0.00 0.00 0.00 74 1011.2
20260830172712 78 220 5.0 9.0 0.00 0.00 0.00 74 1011.2
20260830172208 78 265 0.0 7.0 0.00 0.00 0.00 75 1011.1
20260830171720 77 256 4.0 8.0 0.00 0.00 0.00 77 1011.0
20260830171230 77 247 3.0 8.0 0.00 0.00 0.00 78 1010.9
20260830170934 77 220 2.0 7.0 0.00 0.00 0.00 77 1010.9
20260830170439 77 203 3.0 7.0 0.00 0.00 0.00 77 1011.0
20260830165711 76 233 2.0 6.0 0.00 0.00 0.00 76 1010.9
20260830165202 76 266 1.0 7.0 0.00 0.00 0.00 77 1010.7
20260830164659 76 208 2.0 7.0 0.00 0.00 0.00 78 1010.8
20260830164211 76 226 3.0 7.0 0.00 0.00 0.00 79 1010.6
20260830163707 76 213 1.0 9.0 0.00 0.00 0.00 80 1010.7
20260830163158 77 247 3.0 9.0 0.00 0.00 0.00 81 1010.8
20260830162919 77 215 4.0 8.0 0.00 0.00 0.00 81 1010.8
20260830162157 77 213 5.0 8.0 0.00 0.00 0.00 81 1010.8
20260830161658 77 233 3.0 5.0 0.00 0.00 0.00 78 1010.8
20260830161423 77 279 1.0 5.0 0.00 0.00 0.00 78 1010.8
20260830160918 77 205 2.0 5.0 0.00 0.00 0.00 76 1010.8
20260830160416 76 219 1.0 5.0 0.00 0.00 0.00 77 1010.8
20260830155657 76 205 3.0 5.0 0.00 0.00 0.00 79 1010.8
20260830155157 76 245 0.0 2.0 0.00 0.00 0.00 77 1010.9
20260830154656 75 261 0.0 2.0 0.00 0.00 0.00 79 1010.8
20260830154156 74 303 1.0 2.0 0.00 0.00 0.00 80 1010.8
20260830153920 74 256 0.0 2.0 0.00 0.00 0.00 81 1010.8
20260830153157 73 258 1.0 2.0 0.00 0.00 0.00 83 1010.8
20260830152656 73 270 0.0 2.0 0.00 0.00 0.00 83 1010.8
20260830152156 73 235 2.0 3.0 0.00 0.00 0.00 86 1010.7
20260830151655 73 220 2.0 3.0 0.00 0.00 0.00 86 1010.8
20260830151156 72 262 0.0 2.0 0.00 0.00 0.00 86 1010.8
20260830150655 72 221 0.0 0.0 0.00 0.00 0.00 86 1010.9
20260830150154 72 260 0.0 1.0 0.00 0.00 0.00 87 1010.9
20260830145654 72 253 0.0 2.0 0.00 0.00 0.00 88 1010.8
20260830145156 72 244 2.0 2.0 0.00 0.00 0.00 88 1010.8
20260830144916 72 246 1.0 3.0 0.00 0.00 0.00 88 1010.8
20260830144154 72 252 0.0 3.0 0.00 0.00 0.00 89 1010.7
20260830143654 72 239 0.0 2.0 0.00 0.00 0.00 88 1010.7
20260830143154 71 256 0.0 2.0 0.00 0.00 0.00 88 1010.7
20260830142655 71 254 0.0 2.0 0.00 0.00 0.00 89 1010.7
20260830141653 71 241 2.0 3.0 0.00 0.00 0.00 90 1010.8
20260830141155 71 243 0.0 0.0 0.00 0.00 0.00 89 1010.7
20260830140655 71 265 0.0 0.0 0.00 0.00 0.00 90 1010.7
20260830140153 71 242 0.0 0.0 0.00 0.00 0.00 90 1010.6
20260830135653 71 253 0.0 0.0 0.00 0.00 0.00 90 1010.6
20260830135151 71 246 0.0 0.0 0.00 0.00 0.00 90 1010.6
20260830134654 71 256 0.0 0.0 0.00 0.00 0.00 90 1010.5
20260830134153 71 251 0.0 0.0 0.00 0.00 0.00 91 1010.4
20260830133652 71 254 0.0 0.0 0.00 0.00 0.00 91 1010.3
20260830133154 71 247 0.0 0.0 0.00 0.00 0.00 91 1010.3
20260830132654 71 244 0.0 0.0 0.00 0.00 0.00 90 1010.3
20260830132418 71 248 0.0 0.0 0.00 0.00 0.00 90 1010.3
20260830131652 71 244 0.0 0.0 0.00 0.00 0.00 90 1010.2
20260830131153 71 251 0.0 0.0 0.00 0.00 0.00 90 1010.1
20260830130916 71 245 0.0 0.0 0.00 0.00 0.00 90 1010.1
20260830130152 71 245 0.0 0.0 0.00 0.00 0.00 90 1010.2
20260830125652 71 256 0.0 0.0 0.00 0.00 0.00 90 1010.1
20260830125409 71 235 0.0 3.0 0.00 0.00 0.00 90 1010.1
20260830124653 71 249 0.0 5.0 0.00 0.00 0.00 90 1010.0
20260830124151 71 222 3.0 5.0 0.00 0.00 0.00 90 1010.0
20260830123651 71 248 0.0 3.0 0.00 0.00 0.00 90 1010.0
20260830123410 71 199 1.0 3.0 0.00 0.00 0.00 90 1010.0
20260830122652 71 246 2.0 5.0 0.00 0.00 0.00 90 1010.1
20260830122152 71 252 2.0 5.0 0.00 0.00 0.00 90 1010.0
20260830121909 71 227 0.0 3.0 0.00 0.00 0.00 90 1010.0
20260830121413 71 231 1.0 3.0 0.00 0.00 0.00 90 1010.0
20260830120652 71 251 0.0 0.0 0.00 0.00 0.00 90 1009.9
20260830120151 71 242 0.0 0.0 0.00 0.00 0.00 90 1010.1
20260830115651 71 252 0.0 2.0 0.00 0.00 0.00 90 1010.1
20260830115150 71 259 0.0 3.0 0.00 0.00 0.00 90 1010.0
20260830114652 71 253 0.0 3.0 0.00 0.00 0.00 90 1010.1
20260830114151 71 242 0.0 0.0 0.00 0.00 0.00 90 1010.1
20260830113649 71 246 0.0 0.0 0.00 0.00 0.00 90 1010.0
20260830112652 72 251 0.0 1.0 0.00 0.00 0.00 90 1010.1
20260830112151 72 254 0.0 5.0 0.00 0.00 0.00 91 1010.1
20260830111649 72 254 1.0 5.0 0.00 0.00 0.00 91 1010.0
20260830111149 72 245 0.0 6.0 0.00 0.00 0.00 91 1010.0
20260830110652 72 223 3.0 6.0 0.00 0.00 0.00 91 1010.0
20260830110408 72 258 0.0 0.0 0.00 0.00 0.00 91 1010.0
20260830105907 72 257 0.0 0.0 0.00 0.00 0.00 91 1009.8
20260830105148 72 257 0.0 2.0 0.00 0.00 0.00 91 1010.0
20260830104650 72 250 0.0 2.0 0.00 0.00 0.00 91 1010.0
20260830104150 72 222 0.0 2.0 0.00 0.00 0.00 91 1010.0
20260830103649 72 250 0.0 2.0 0.00 0.00 0.00 91 1009.9
20260830103149 72 226 2.0 3.0 0.00 0.00 0.00 91 1010.0
20260830102650 72 262 0.0 3.0 0.00 0.00 0.00 91 1009.8
20260830102150 72 208 1.0 3.0 0.00 0.00 0.00 91 1009.9
20260830101910 72 256 0.0 3.0 0.00 0.00 0.00 91 1009.9
20260830101149 72 237 0.0 2.0 0.00 0.00 0.00 91 1009.7
20260830100648 72 242 0.0 1.0 0.00 0.00 0.00 91 1009.7
20260830095719 72 240 0.0 1.0 0.00 0.00 0.00 91 1009.6
20260830095219 72 244 0.0 0.0 0.00 0.00 0.00 91 1009.7
20260830094944 72 251 0.0 1.0 0.00 0.00 0.00 91 1009.7
20260830094220 72 245 0.0 2.0 0.00 0.00 0.00 91 1009.6
20260830093719 72 237 1.0 2.0 0.00 0.00 0.00 91 1009.7
20260830093219 72 249 0.0 0.0 0.00 0.00 0.00 91 1009.7
20260830092720 72 242 0.0 0.0 0.00 0.00 0.00 91 1009.7
20260830092220 72 252 0.0 0.0 0.00 0.00 0.00 91 1009.9
20260830091218 72 241 0.0 0.0 0.00 0.00 0.00 91 1009.9
20260830090720 72 235 0.0 0.0 0.00 0.00 0.00 92 1009.9
20260830090220 72 253 0.0 0.0 0.00 0.00 0.00 92 1010.0
20260830085718 72 241 0.0 0.0 0.00 0.00 0.00 92 1010.0
20260830085218 72 246 0.0 0.0 0.00 0.00 0.00 92 1009.9
20260830084719 72 240 0.0 0.0 0.00 0.00 0.00 92 1009.9
20260830084220 72 245 0.0 1.0 0.00 0.00 0.00 92 1009.9
20260830083718 72 241 0.0 3.0 0.00 0.00 0.00 92 1009.9
20260830083218 72 255 1.0 3.0 0.00 0.00 0.00 92 1009.8
20260830082719 72 246 3.0 3.0 0.00 0.00 0.00 92 1009.8
20260830082218 72 261 0.0 2.0 0.00 0.00 0.00 92 1009.8
20260830081717 72 255 0.0 2.0 0.00 0.00 0.00 92 1009.8
20260830081434 72 254 0.0 0.0 0.00 0.00 0.00 92 1009.8
20260830080941 72 242 0.0 2.0 0.00 0.00 0.00 92 1009.8
20260830075716 72 248 1.0 2.0 0.00 0.00 0.00 93 1009.7
20260830075217 72 231 1.0 2.0 0.00 0.00 0.00 93 1009.8
20260830074717 72 246 0.0 0.0 0.00 0.00 0.00 93 1010.0
20260830074218 72 257 0.0 1.0 0.00 0.00 0.00 93 1010.0
20260830073717 72 263 0.0 3.0 0.00 0.00 0.00 93 1010.1
20260830073218 72 266 1.0 5.0 0.00 0.00 0.00 93 1010.1
20260830072938 72 255 2.0 5.0 0.00 0.00 0.00 93 1010.2
20260830072218 72 253 0.0 2.0 0.00 0.00 0.00 93 1010.2
20260830071717 72 257 0.0 2.0 0.00 0.00 0.00 93 1010.1
20260830071440 72 257 1.0 2.0 0.00 0.00 0.00 92 1010.0
20260830070716 72 266 0.0 0.0 0.00 0.00 0.00 92 1010.0
20260830070439 72 262 0.0 0.0 0.00 0.00 0.00 92 1010.0
20260830065717 72 238 0.0 0.0 0.00 0.00 0.00 92 1009.9
20260830064715 72 265 0.0 2.0 0.00 0.00 0.00 92 1010.0
20260830064217 72 264 0.0 3.0 0.00 0.00 0.00 91 1010.0
20260830063717 72 243 2.0 3.0 0.00 0.00 0.00 91 1010.1
20260830063215 72 242 0.0 2.0 0.00 0.00 0.00 91 1010.1
20260830062715 72 247 0.0 2.0 0.00 0.00 0.00 91 1010.1
20260830062216 72 261 0.0 3.0 0.00 0.00 0.00 91 1010.0
20260830061716 72 235 0.0 3.0 0.00 0.00 0.00 91 1010.0
20260830061214 72 263 2.0 3.0 0.00 0.00 0.00 91 1010.1
20260830060714 72 254 0.0 2.0 0.00 0.00 0.00 90 1010.0
20260830060215 72 252 0.0 1.0 0.00 0.00 0.00 91 1010.0
20260830055942 72 246 0.0 0.0 0.00 0.00 0.00 91 1010.1
20260830055213 72 233 0.0 0.0 0.00 0.00 0.00 91 1010.1
20260830054714 72 257 0.0 0.0 0.00 0.00 0.00 91 1010.0
20260830054215 72 253 0.0 0.0 0.00 0.00 0.00 92 1010.1
20260830053939 72 260 0.0 1.0 0.00 0.00 0.00 92 1010.1
20260830053214 72 261 0.0 3.0 0.00 0.00 0.00 92 1009.9
20260830052713 72 258 0.0 3.0 0.00 0.00 0.00 92 1010.1
20260830052215 72 266 2.0 3.0 0.00 0.00 0.00 92 1010.0
20260830051714 72 258 0.0 3.0 0.00 0.00 0.00 92 1010.1
20260830051213 72 259 0.0 3.0 0.00 0.00 0.00 92 1010.1
20260830050713 72 260 2.0 3.0 0.00 0.00 0.00 92 1010.1
20260830050213 72 259 1.0 3.0 0.00 0.00 0.00 92 1010.1
20260830045935 73 260 1.0 5.0 0.00 0.00 0.00 92 1010.1
20260830045431 73 283 2.0 5.0 0.00 0.00 0.00 92 1010.2
20260830044713 73 264 1.0 5.0 0.00 0.00 0.00 92 1010.1
20260830044212 73 284 2.0 5.0 0.00 0.00 0.00 92 1010.1
20260830043713 73 259 0.0 5.0 0.00 0.00 0.00 92 1010.1
20260830043213 73 256 1.0 5.0 0.00 0.00 0.00 92 1010.1
20260830042712 73 293 3.0 6.0 0.00 0.00 0.00 92 1010.1
20260830042212 73 257 1.0 6.0 0.00 0.00 0.00 92 1010.1
20260830041713 73 258 1.0 5.0 0.00 0.00 0.00 92 1010.0
20260830041213 73 256 2.0 6.0 0.00 0.00 0.00 92 1009.9
20260830040711 73 272 2.0 6.0 0.00 0.00 0.00 92 1009.7
20260830040211 73 243 1.0 6.0 0.00 0.00 0.00 91 1009.7
20260830035713 73 289 1.0 7.0 0.00 0.00 0.00 91 1009.7
20260830035213 73 338 1.0 7.0 0.00 0.00 0.00 91 1009.6
20260830034711 73 267 3.0 6.0 0.00 0.00 0.00 91 1009.7
20260830034432 74 272 3.0 5.0 0.00 0.00 0.00 90 1009.6
20260830033932 74 249 2.0 3.0 0.00 0.00 0.00 90 1009.6
20260830033212 74 258 0.0 6.0 0.00 0.00 0.00 90 1009.5
20260830032711 74 254 0.0 6.0 0.00 0.00 0.00 90 1009.5
20260830032211 74 249 1.0 6.0 0.00 0.00 0.00 89 1009.4
20260830031940 74 264 2.0 6.0 0.00 0.00 0.00 89 1009.3
20260830031428 75 274 2.0 5.0 0.00 0.00 0.00 89 1009.3
20260830030710 75 345 1.0 5.0 0.00 0.00 0.00 89 1009.1
20260830030210 75 280 1.0 3.0 0.00 0.00 0.00 88 1009.0
20260830025712 75 271 2.0 3.0 0.00 0.00 0.00 87 1009.0
20260830025211 75 244 0.0 3.0 0.00 0.00 0.00 86 1009.0